Weather History for Los Alamos, NM

Change the Weather History Date:

Wednesday, January 16, 2013

  Actual Average Record
Temperature  
Mean Temperature 22 °F -  
Max Temperature 34 °F 40 °F 53 °F (1956)
Min Temperature 10 °F 19 °F 6 °F (1992)
Degree Days  
Heating Degree Days 43    
Moisture  
Dew Point 7 °F    
Average Humidity 50    
Maximum Humidity 63    
Minimum Humidity 34    
Precipitation  
Precipitation 0.00 in - - ()
Sea Level Pressure  
Sea Level Pressure 30.30 in    
Wind  
Wind Speed 1 mph (NNE)    
Max Wind Speed 6 mph    
Max Gust Speed -    
Visibility 10 miles    
Events      
Averages and records for this station are not official NWS values.
T = Trace of Precipitation, MM = Missing Value Source: NWS Daily Summary

Daily Weather History Graph

Daily Weather History Graph

Search for Another Location

Airport:

Trip Planner

Search our weather history database for the weather conditions in past years. The results will help you decide how hot, cold, wet, or windy it might be!

Date:

Astronomy

Jan. 16, 2013 Rise Set
Actual Time 7:14 AM MST 5:16 PM MST
Civil Twilight 6:46 AM MST 5:43 PM MST
Nautical Twilight 6:15 AM MST 6:15 PM MST
Astronomical Twilight 5:44 AM MST 6:45 PM MST
Moon 10:04 AM MST (1/16) 10:57 PM MST (1/16)
Length of Visible Light 10h 57m
Length of Day
10h 01m
Waxing Crescent, 29% of the Moon is Illuminated
Jan 16
Waxing Crescent
Jan 18
First Quarter
Jan 26
Full
Feb 3
Last Quarter
Feb 10
New

Hourly Weather History & Observations

Time (MST) Temp. Windchill Dew Point Humidity Pressure Visibility Wind Dir Wind Speed Gust Speed Precip Events Conditions
12:15 AM 14.0 °F - -0.0 °F 54% 30.24 in 10.0 mi Calm Calm - N/A   Clear
12:35 AM 13.8 °F - -0.0 °F 54% 30.24 in 10.0 mi Calm Calm - N/A   Clear
12:55 AM 12.9 °F - -0.2 °F 56% 30.24 in - Calm Calm - N/A   Clear
1:15 AM 14.4 °F - -0.2 °F 52% 30.24 in 10.0 mi Calm Calm - N/A   Clear
1:35 AM 14.2 °F - -0.4 °F 52% 30.24 in 10.0 mi Calm Calm - N/A   Clear
2:15 AM 17.1 °F - -2.0 °F 43% 30.25 in 10.0 mi Calm Calm - N/A   Clear
2:35 AM 14.9 °F - -0.9 °F 50% 30.25 in 10.0 mi Calm Calm - N/A   Clear
2:55 AM 12.2 °F - -0.4 °F 57% 30.27 in 10.0 mi Calm Calm - N/A   Clear
3:15 AM 12.0 °F - -0.4 °F 58% 30.26 in 10.0 mi Calm Calm - N/A   Clear
3:35 AM 11.3 °F - -0.4 °F 59% 30.26 in 10.0 mi Calm Calm - N/A   Clear
3:55 AM 10.4 °F - -0.4 °F 62% 30.27 in 10.0 mi Calm Calm - N/A   Clear
4:15 AM 12.0 °F - -0.4 °F 58% 30.26 in 10.0 mi Calm Calm - N/A   Clear
4:35 AM 12.7 °F - -0.4 °F 56% 30.26 in 10.0 mi Calm Calm - N/A   Clear
4:55 AM 12.4 °F - -0.4 °F 57% 30.25 in 10.0 mi Calm Calm - N/A   Clear
5:35 AM 12.0 °F - -0.0 °F 59% 30.26 in 10.0 mi Calm Calm - N/A   Clear
5:55 AM 10.6 °F - -0.4 °F 61% 30.27 in 10.0 mi Calm Calm - N/A   Clear
6:15 AM 10.8 °F - -0.4 °F 61% 30.28 in 10.0 mi Calm Calm - N/A   Clear
6:35 AM 10.0 °F 3.6 °F -0.4 °F 63% 30.28 in 10.0 mi North 3.5 mph - N/A   Clear
6:55 AM 10.0 °F 3.6 °F -0.4 °F 63% 30.28 in 10.0 mi NNW 3.5 mph - N/A   Clear
7:15 AM 11.5 °F 2.1 °F 0.7 °F 62% 30.28 in 10.0 mi WNW 5.8 mph - N/A   Clear
7:35 AM 14.0 °F - 2.1 °F 59% 30.29 in 10.0 mi Calm Calm - N/A   Clear
7:55 AM 13.1 °F - 1.4 °F 60% 30.30 in 10.0 mi Calm Calm - N/A   Clear
8:15 AM 14.0 °F 6.5 °F 1.6 °F 58% 30.32 in 10.0 mi North 4.6 mph - N/A   Clear
8:35 AM 14.9 °F 9.2 °F 1.4 °F 55% 30.32 in 10.0 mi NNW 3.5 mph - N/A   Clear
8:55 AM 15.8 °F 7.2 °F 2.1 °F 55% 30.33 in 10.0 mi North 5.8 mph - N/A   Clear
9:15 AM 16.3 °F 9.2 °F 2.5 °F 55% 30.33 in 10.0 mi North 4.6 mph - N/A   Clear
9:35 AM 16.7 °F - 2.3 °F 53% 30.33 in 10.0 mi Calm Calm - N/A   Clear
9:55 AM 19.2 °F 11.3 °F 3.9 °F 51% 30.33 in 10.0 mi North 5.8 mph - N/A   Clear
10:15 AM 22.6 °F 16.5 °F 5.4 °F 48% 30.33 in 10.0 mi North 4.6 mph - N/A   Clear
10:35 AM 25.2 °F 19.5 °F 6.4 °F 45% 30.33 in 10.0 mi NNW 4.6 mph - N/A   Clear
10:55 AM 25.9 °F 21.7 °F 7.2 °F 45% 30.32 in 10.0 mi East 3.5 mph - N/A   Clear
11:15 AM 24.4 °F - 6.6 °F 47% 30.32 in 10.0 mi Calm Calm - N/A   Clear
11:35 AM 24.6 °F - 6.3 °F 46% 30.30 in 10.0 mi Calm Calm - N/A   Clear
11:55 AM 25.3 °F - 7.2 °F 46% 30.30 in 10.0 mi Calm Calm - N/A   Clear
12:15 PM 26.4 °F - 7.0 °F 44% 30.29 in 10.0 mi Calm Calm - N/A   Clear
12:35 PM 28.8 °F - 7.7 °F 41% 30.28 in 10.0 mi Calm Calm - N/A   Clear
12:55 PM 29.7 °F - 8.8 °F 42% 30.28 in 10.0 mi Calm Calm - N/A   Clear
1:15 PM 32.0 °F - 8.6 °F 38% 30.27 in 10.0 mi Calm Calm - N/A   Clear
1:35 PM 32.7 °F 29.6 °F 9.5 °F 38% 30.26 in 10.0 mi East 3.5 mph - N/A   Clear
1:55 PM 32.5 °F 28.1 °F 9.9 °F 39% 30.26 in 10.0 mi East 4.6 mph - N/A   Clear
2:15 PM 32.9 °F 29.8 °F 9.5 °F 38% 30.26 in 10.0 mi East 3.5 mph - N/A   Clear
2:35 PM 32.7 °F 29.6 °F 9.3 °F 38% 30.27 in 10.0 mi East 3.5 mph - N/A   Clear
2:55 PM 33.4 °F - 8.4 °F 35% 30.26 in 10.0 mi Calm Calm - N/A   Clear
3:15 PM 33.4 °F - 8.2 °F 35% 30.27 in 10.0 mi Calm Calm - N/A   Clear
3:35 PM 33.4 °F - 8.2 °F 35% 30.27 in 10.0 mi Calm Calm - N/A   Clear
3:55 PM 34.3 °F - 8.6 °F 34% 30.27 in 10.0 mi Calm Calm - N/A   Clear
4:15 PM 33.1 °F - 8.6 °F 36% 30.28 in 10.0 mi Calm Calm - N/A   Clear
4:35 PM 32.9 °F - 12.6 °F 43% 30.28 in 10.0 mi Calm Calm - N/A   Clear
4:55 PM 31.6 °F - 14.0 °F 48% 30.29 in 10.0 mi Calm Calm - N/A   Clear
5:15 PM 29.7 °F - 14.7 °F 54% 30.30 in 10.0 mi Calm Calm - N/A   Clear
5:35 PM 28.4 °F - 15.3 °F 58% 30.30 in 10.0 mi Calm Calm - N/A   Clear
5:55 PM 28.6 °F - 15.3 °F 58% 30.31 in 10.0 mi Calm Calm - N/A   Clear
6:15 PM 29.1 °F - 15.1 °F 56% 30.31 in 10.0 mi Calm Calm - N/A   Clear
6:35 PM 29.3 °F - 14.9 °F 55% 30.32 in 10.0 mi Calm Calm - N/A   Clear
6:55 PM 30.2 °F - 14.5 °F 52% 30.33 in 10.0 mi Calm Calm - N/A   Clear
7:15 PM 30.4 °F - 14.7 °F 52% 30.34 in 10.0 mi Calm Calm - N/A   Clear
7:35 PM 30.2 °F - 14.0 °F 51% 30.35 in 10.0 mi Calm Calm - N/A   Clear
7:55 PM 27.9 °F - 14.4 °F 57% 30.36 in 10.0 mi Calm Calm - N/A   Clear
8:15 PM 26.6 °F - 13.6 °F 58% 30.37 in 10.0 mi Calm Calm - N/A   Clear
8:35 PM 28.0 °F - 13.1 °F 54% 30.37 in 10.0 mi Calm Calm - N/A   Clear
8:55 PM 29.7 °F - 12.0 °F 48% 30.37 in 10.0 mi Calm Calm - N/A   Clear
9:15 PM 30.0 °F - 11.3 °F 46% 30.37 in 10.0 mi Calm Calm - N/A   Clear
9:35 PM 30.9 °F - 11.1 °F 44% 30.37 in 10.0 mi Calm Calm - N/A   Clear
9:55 PM 31.5 °F - 10.9 °F 43% 30.37 in 10.0 mi Calm Calm - N/A   Clear
10:15 PM 30.4 °F - 11.3 °F 45% 30.37 in 10.0 mi Calm Calm - N/A   Clear
10:35 PM 29.8 °F - 11.7 °F 47% 30.38 in 10.0 mi Calm Calm - N/A   Clear
10:55 PM 27.7 °F - 12.2 °F 52% 30.39 in 10.0 mi Calm Calm - N/A   Clear
11:15 PM 27.3 °F - 12.6 °F 54% 30.39 in 10.0 mi Calm Calm - N/A   Clear
11:35 PM 26.4 °F - 12.2 °F 55% 30.40 in 10.0 mi Calm Calm - N/A   Clear